Cloud_Cover
100 100 100 100 100 100 100 100 100 100 100 100 100 100 100 100 100 100 100 100 100 100
5 93 100 100 100 100 100 100 100 100 100 100 100 100 100 100 100 100 100 100 100 100
5 41 100 100 100 100 100 100 100 100 100 100 100 100 100 100 100 100 100 100 100 100
4 5 72 100 100 100 100 100 100 100 100 100 100 100 100 100 100 100 100 100 100 100
0 3 6 76 100 100 100 100 100 100 100 100 100 100 100 100 100 100 100 100 100 100
0 1 5 12 98 100 100 100 100 100 100 100 100 100 100 100 100 100 100 100 100 100
0 3 5 5 76 100 100 100 100 100 100 100 100 100 100 100 100 100 100 100 100 100
0 0 4 5 62 98 100 100 100 100 100 100 100 100 100 100 100 100 100 100 100 100
0 0 2 5 63 99 100 100 100 100 100 100 100 100 100 100 100 100 100 100 100 100
0 0 3 5 24 83 100 100 100 100 100 100 100 100 100 100 100 100 100 100 100 100
0 0 5 5 5 15 100 100 100 100 100 100 100 100 100 100 100 100 100 100 100 100
0 0 5 5 5 16 100 100 100 100 100 100 100 100 100 100 100 100 100 100 100 100
0 0 6 44 5 29 99 100 100 100 100 100 100 100 100 100 100 100 100 100 100 100
0 0 42 6 5 58 100 100 100 100 100 100 100 100 100 100 100 100 100 100 100 100